EA3BIN-13 Weather Reports


Display with metric or nautical units.
time (UTC)temp
F
wind
direction
speed
MPH
gust
MPH
rain 1hr
in
rain 24hr
in
rain mn
in
humidity
%
barometer
mb
20260507190918 58 0.0 0.0 0.00 0.00 0.00 10 1013.5
20260507185918 59 0.0 0.0 0.00 0.00 0.00 10 1013.3
20260507184918 59 0.0 0.0 0.00 0.00 0.00 10 1013.1
20260507183918 61 0.0 0.0 0.00 0.00 0.00 96 1013.0
20260507182918 62 0.0 0.0 0.00 0.00 0.00 88 1012.7
20260507181918 62 0.0 0.0 0.00 0.00 0.00 81 1012.5
20260507180924 65 0.0 0.0 0.00 0.00 0.00 69 1012.1
20260507175918 67 0.0 0.0 0.00 0.00 0.00 66 1011.8
20260507174918 65 0.0 0.0 0.00 0.00 0.00 66 1011.7
20260507173918 67 0.0 0.0 0.00 0.00 0.00 64 1011.6
20260507172918 69 0.0 0.0 0.00 0.00 0.00 52 1011.4
20260507171918 83 0.0 0.0 0.00 0.00 0.00 36 1009.9
20260507170929 78 0.0 0.0 0.00 0.00 0.00 40 1010.2
20260507165918 88 0.0 0.0 0.00 0.00 0.00 32 1009.3
20260507164918 83 0.0 0.0 0.00 0.00 0.00 34 1009.7
20260507163918 86 0.0 0.0 0.00 0.00 0.00 33 1009.5
20260507162918 106 0.0 0.0 0.00 0.00 0.00 20 1007.9
20260507161918 96 0.0 0.0 0.00 0.00 0.00 27 1008.4
20260507160918 79 0.0 0.0 0.00 0.00 0.00 42 1010.0
20260507155918 79 0.0 0.0 0.00 0.00 0.00 43 1009.9
20260507154918 71 0.0 0.0 0.00 0.00 0.00 52 1010.9
20260507153918 72 0.0 0.0 0.00 0.00 0.00 48 1010.7
20260507152918 80 0.0 0.0 0.00 0.00 0.00 38 1010.0
20260507151923 76 0.0 0.0 0.00 0.00 0.00 41 1010.3
20260507150918 82 0.0 0.0 0.00 0.00 0.00 34 1009.8
20260507145918 92 0.0 0.0 0.00 0.00 0.00 29 1008.9
20260507144918 83 0.0 0.0 0.00 0.00 0.00 36 1009.9
20260507143918 91 0.0 0.0 0.00 0.00 0.00 28 1009.2
20260507142924 96 0.0 0.0 0.00 0.00 0.00 27 1008.9
20260507141918 90 0.0 0.0 0.00 0.00 0.00 31 1009.7
20260507140918 93 0.0 0.0 0.00 0.00 0.00 30 1009.4
20260507135918 76 0.0 0.0 0.00 0.00 0.00 47 1011.2
20260507134918 82 0.0 0.0 0.00 0.00 0.00 40 1010.4
20260507133918 76 0.0 0.0 0.00 0.00 0.00 48 1011.2
20260507132918 78 0.0 0.0 0.00 0.00 0.00 46 1011.1
20260507131918 77 0.0 0.0 0.00 0.00 0.00 47 1011.1
20260507130929 74 0.0 0.0 0.00 0.00 0.00 53 1011.5
20260507125923 76 0.0 0.0 0.00 0.00 0.00 51 1011.5
20260507124918 76 0.0 0.0 0.00 0.00 0.00 50 1011.5
20260507123918 75 0.0 0.0 0.00 0.00 0.00 49 1011.6
20260507122923 72 0.0 0.0 0.00 0.00 0.00 54 1012.0
20260507121918 70 0.0 0.0 0.00 0.00 0.00 56 1012.3
20260507120918 76 0.0 0.0 0.00 0.00 0.00 47 1011.6
20260507115918 77 0.0 0.0 0.00 0.00 0.00 43 1011.7
20260507114918 77 0.0 0.0 0.00 0.00 0.00 46 1011.7
20260507113918 78 0.0 0.0 0.00 0.00 0.00 46 1011.6
20260507112918 77 0.0 0.0 0.00 0.00 0.00 48 1011.8
20260507111923 75 0.0 0.0 0.00 0.00 0.00 49 1012.2
20260507110918 73 0.0 0.0 0.00 0.00 0.00 53 1012.7
20260507105918 73 0.0 0.0 0.00 0.00 0.00 51 1012.7
20260507104918 72 0.0 0.0 0.00 0.00 0.00 55 1012.9
20260507103918 72 0.0 0.0 0.00 0.00 0.00 56 1013.1
20260507102918 73 0.0 0.0 0.00 0.00 0.00 57 1013.1
20260507101918 71 0.0 0.0 0.00 0.00 0.00 61 1013.3
20260507100918 68 0.0 0.0 0.00 0.00 0.00 66 1013.7
20260507095923 70 0.0 0.0 0.00 0.00 0.00 63 1013.5
20260507094918 67 0.0 0.0 0.00 0.00 0.00 65 1013.7
20260507093918 69 0.0 0.0 0.00 0.00 0.00 63 1013.6
20260507092918 69 0.0 0.0 0.00 0.00 0.00 64 1013.8
20260507091924 68 0.0 0.0 0.00 0.00 0.00 70 1013.8
20260507090950 64 0.0 0.0 0.00 0.00 0.00 80 1014.2
20260507085918 65 0.0 0.0 0.00 0.00 0.00 82 1013.8
20260507084918 69 0.0 0.0 0.00 0.00 0.00 73 1013.6
20260507083918 66 0.0 0.0 0.00 0.00 0.00 89 1013.8
20260507082918 65 0.0 0.0 0.00 0.00 0.00 10 1014.0
20260507081918 63 0.0 0.0 0.00 0.00 0.00 10 1014.2
20260507080918 61 0.0 0.0 0.00 0.00 0.00 10 1014.4
20260507075918 59 0.0 0.0 0.00 0.00 0.00 10 1014.7
20260507074918 60 0.0 0.0 0.00 0.00 0.00 10 1014.7
20260507073918 59 0.0 0.0 0.00 0.00 0.00 10 1015.0
20260507072924 57 0.0 0.0 0.00 0.00 0.00 10 1015.1
20260507071918 55 0.0 0.0 0.00 0.00 0.00 10 1015.3
20260507070918 54 0.0 0.0 0.00 0.00 0.00 10 1015.4
20260507065918 53 0.0 0.0 0.00 0.00 0.00 10 1015.5
20260507064929 52 0.0 0.0 0.00 0.00 0.00 10 1015.4
20260507063923 51 0.0 0.0 0.00 0.00 0.00 10 1015.3
20260507062918 50 0.0 0.0 0.00 0.00 0.00 10 1015.4
20260507061920 50 0.0 0.0 0.00 0.00 0.00 10 1015.2
20260507060918 50 0.0 0.0 0.00 0.00 0.00 10 1015.2
20260507055919 50 0.0 0.0 0.00 0.00 0.00 10 1015.1
20260507054918 50 0.0 0.0 0.00 0.00 0.00 10 1015.2
20260507053918 49 0.0 0.0 0.00 0.00 0.00 10 1015.2
20260507052918 49 0.0 0.0 0.00 0.00 0.00 10 1015.1
20260507051918 48 0.0 0.0 0.00 0.00 0.00 10 1015.1
20260507050919 48 0.0 0.0 0.00 0.00 0.00 10 1015.1
20260507045924 47 0.0 0.0 0.00 0.00 0.00 10 1015.1
20260507044918 47 0.0 0.0 0.00 0.00 0.00 10 1015.0
20260507043918 47 0.0 0.0 0.00 0.00 0.00 10 1015.0
20260507042918 48 0.0 0.0 0.00 0.00 0.00 10 1015.0
20260507041918 47 0.0 0.0 0.00 0.00 0.00 10 1015.0
20260507040918 48 0.0 0.0 0.00 0.00 0.00 10 1015.1
20260507035918 47 0.0 0.0 0.00 0.00 0.00 10 1015.0
20260507034918 47 0.0 0.0 0.00 0.00 0.00 10 1015.0
20260507033918 47 0.0 0.0 0.00 0.00 0.00 10 1015.0
20260507032918 47 0.0 0.0 0.00 0.00 0.00 10 1015.1
20260507031918 47 0.0 0.0 0.00 0.00 0.00 10 1015.0
20260507030918 48 0.0 0.0 0.00 0.00 0.00 10 1015.1
20260507025918 48 0.0 0.0 0.00 0.00 0.00 10 1015.1
20260507024919 48 0.0 0.0 0.00 0.00 0.00 10 1015.0
20260507023918 48 0.0 0.0 0.00 0.00 0.00 10 1014.8
20260507022918 49 0.0 0.0 0.00 0.00 0.00 10 1014.8
20260507021919 49 0.0 0.0 0.00 0.00 0.00 10 1014.7
20260507020924 49 0.0 0.0 0.00 0.00 0.00 10 1014.7
20260507015924 49 0.0 0.0 0.00 0.00 0.00 10 1014.7
20260507014918 49 0.0 0.0 0.00 0.00 0.00 10 1015.0
20260507013918 49 0.0 0.0 0.00 0.00 0.00 10 1015.1
20260507012924 50 0.0 0.0 0.00 0.00 0.00 10 1015.0
20260507011924 49 0.0 0.0 0.00 0.00 0.00 10 1014.9
20260507010919 50 0.0 0.0 0.00 0.00 0.00 10 1014.8
20260507005919 51 0.0 0.0 0.00 0.00 0.00 10 1014.9
20260507004918 51 0.0 0.0 0.00 0.00 0.00 10 1014.9
20260507003918 51 0.0 0.0 0.00 0.00 0.00 10 1015.0
20260507002924 51 0.0 0.0 0.00 0.00 0.00 10 1014.9
20260507001918 51 0.0 0.0 0.00 0.00 0.00 10 1014.9
20260507000918 51 0.0 0.0 0.00 0.00 0.00 10 1015.0
20260506235919 51 0.0 0.0 0.00 0.00 0.00 10 1014.9
20260506234918 52 0.0 0.0 0.00 0.00 0.00 10 1014.8
20260506233918 53 0.0 0.0 0.00 0.00 0.00 10 1014.8
20260506232919 54 0.0 0.0 0.00 0.00 0.00 10 1014.7
20260506231919 54 0.0 0.0 0.00 0.00 0.00 10 1014.7
20260506230924 54 0.0 0.0 0.00 0.00 0.00 10 1014.6
20260506225918 55 0.0 0.0 0.00 0.00 0.00 10 1014.6
20260506224924 54 0.0 0.0 0.00 0.00 0.00 10 1014.6
20260506223929 54 0.0 0.0 0.00 0.00 0.00 10 1014.5
20260506222918 55 0.0 0.0 0.00 0.00 0.00 10 1014.6
20260506221918 55 0.0 0.0 0.00 0.00 0.00 10 1014.4
20260506220918 55 0.0 0.0 0.00 0.00 0.00 10 1014.5
20260506215918 55 0.0 0.0 0.00 0.00 0.00 10 1014.4
20260506214918 55 0.0 0.0 0.00 0.00 0.00 10 1014.5
20260506213918 55 0.0 0.0 0.00 0.00 0.00 10 1014.4
20260506212919 55 0.0 0.0 0.00 0.00 0.00 10 1014.2
20260506211918 55 0.0 0.0 0.00 0.00 0.00 10 1014.3
20260506210919 56 0.0 0.0 0.00 0.00 0.00 10 1014.1
20260506205919 56 0.0 0.0 0.00 0.00 0.00 10 1014.1
20260506204919 56 0.0 0.0 0.00 0.00 0.00 10 1014.0
20260506203919 55 0.0 0.0 0.00 0.00 0.00 10 1014.0
20260506202918 55 0.0 0.0 0.00 0.00 0.00 10 1013.9
20260506201923 56 0.0 0.0 0.00 0.00 0.00 10 1013.6
20260506200918 56 0.0 0.0 0.00 0.00 0.00 10 1013.5
20260506195918 56 0.0 0.0 0.00 0.00 0.00 10 1013.4
20260506194918 56 0.0 0.0 0.00 0.00 0.00 10 1013.2
20260506193918 56 0.0 0.0 0.00 0.00 0.00 10 1012.9
20260506192918 57 0.0 0.0 0.00 0.00 0.00 10 1012.8
20260506191918 58 0.0 0.0 0.00 0.00 0.00 10 1012.5